Location: Unspecified
(0.0000°N, 0.0000°E)
Time: 23:53:02
(UTC+00:00)

Envisat - Pass Details

Date: 30 November 2022
Orbit: 763 x 765 km, 98.2° (Epoch: 02 December)

Event Time Altitude Azimuth Distance (km) Brightness Sun altitude
Exits shadow 04:51:28 18° 277° (W) 1,822 4.3 -13.2°
Drops below altitude 10° 04:54:28 10° 241° (WSW) 2,298 5.1 -12.6°
Sets 04:57:30 0° 222° (SW) 3,227 6.0 -11.9°
